the time You need

,

KS Athlete ()

Nazionalitá:   --

Sesso:   --

Pettorale:   --

Categoria:   --

Società:   --

POS. ASSOLUTA

°

Gara

Granfondo dei Sibillini - La Cicloturistica

Percorso

158.0 Km - LUNGO

Atleti arrivati

206

DETTAGLIO PRESTAZIONE

POSIZIONE ASSOLUTA °
TEMPO TOTALE
MEDIA Km/h
CATEGORIA
POSIZIONE CATEGORIA °

Intermedi

PRESTAZIONE A CONFRONTO
ASSOLUTO

NOME Christian Barchi
° POSIZIONE ASSOLUTA
TEMPO ASSOLUTO 04:39:38.25
Km/h MEDIA PRIMO ASSOLUTO 33,90 Km/h

PRESTAZIONE A CONFRONTO
CATEGORIA

NOME Christian Barchi
° POSIZIONE CATEGORIA
TEMPO PRIMO DI CATEGORIA 04:39:38.25
Km/h MEDIA PRIMO CATEGORIA 33,90 Km/h


 
Grafico Edizioni Precedenti
Risulta una sola edizione, grafico non disponibile.
 
Pos Anno Cat PosCat Sex PosSex Tempo Media RealTime
 

 
Team
Pos Atleta Cat PosCat Tempo Media RealTime
BARCHI CHRISTIAN JUN 1 04:39:38.25 33,90 04:39:35.35
CORSELLO GIUSEPPE VET2 1 04:39:39.59 33,90 04:39:33.39
POETA EMANUELE SEN1 1 04:46:54.31 33,04 04:46:51.51
SISTARELLI SIRIO SEN2 1 04:48:11.29 32,90 04:48:03.03
FANTINI ALESSANDRO SEN1 2 04:48:11.30 32,90 04:48:04.04
DI LEONARDO PAOLO SEN1 3 04:48:12.79 32,89 04:48:04.69
BUSBANI GIAMPAOLO VET1 1 04:51:00.17 32,58 04:50:58.58
CICCARESE STEFANO VET1 2 04:51:00.18 32,58 04:50:27.27
RUBECHINI LUCA VET2 2 04:54:37.33 32,18 04:54:00.13
10° SPADA MARCO VET1 3 04:54:39.81 32,17 04:54:34.11
11° RINALDI LUCIANO VET1 4 04:56:12.06 32,01 04:56:07.07
12° DONATI MATTEO SEN2 2 04:56:12.55 32,01 04:55:40.40
13° DI FIORE EMANUELE SEN2 3 05:01:52.81 31,40 05:01:45.31
14° BONGIOVANNI COSIMO JUN 2 05:01:53.32 31,40 05:01:28.32
15° VANZIN LUCA VET2 3 05:01:53.35 31,40 05:01:48.48
16° GIORGIO BARTOLOMEO GEN2 1 05:01:56.30 31,40 05:01:23.20
17° ALUNNI MASSIMO GEN1 1 05:02:02.80 31,39 05:01:26.30
18° PEZZOTTI ANDREA VET1 5 05:02:51.85 31,30 05:02:27.27
19° CRINELLA LORIS VET1 6 05:03:06.53 31,28 05:03:01.23
20° ANDRENACCI EMIDIO VET1 7 05:03:07.99 31,28 05:02:37.89
21° BRILLI ROBERTO VET2 4 05:03:08.87 31,27 05:03:04.87
22° SQUARTA DAVID SEN2 4 05:03:10.96 31,27 05:02:40.36
23° PESCIAIOLI FRANCESCO SEN1 4 05:03:12.82 31,27 05:02:44.44
24° LAZZARI FRANCESCO SEN1 5 05:03:13.11 31,26 05:02:49.49
25° ROSATI GIUSEPPE GEN1 2 05:03:13.19 31,26 05:03:09.09
26° ORAZI JURI SEN1 6 05:07:29.10 30,83 05:07:27.27
27° SPOLETINI MASSIMO GEN1 3 05:07:29.82 30,83 05:07:27.72
28° DI SAVERIO STEFANO GEN1 4 05:07:30.27 30,83 05:07:06.06
29° GIACOMETTI FABIO VET1 8 05:08:24.08 30,74 05:08:20.20
30° BRAGAGNA GIAN LUCA VET1 9 05:08:24.32 30,74 05:07:59.59
31° GRECO DANIELE JUN 3 05:08:24.48 30,74 05:08:24.18
32° BARBAROSSA ALESSANDRO SEN1 7 05:08:25.13 30,74 05:08:00.03
33° SILANO FABIO SEN2 5 05:08:25.81 30,74 05:08:19.19
34° VINCENTI SERAFINO VET2 5 05:08:27.58 30,73 05:07:56.58
35° GUIDI ALBERTO GEN1 5 05:08:29.10 30,73 05:08:25.10
36° CICULI MAURO GEN1 6 05:08:32.86 30,73 05:08:05.66
37° MASCI MARCO SEN2 6 05:08:33.11 30,72 05:08:05.11
38° VENTURI THOMAS SEN2 7 05:10:12.00 30,56 05:09:46.46
39° DONATI MAURIZIO GEN2 2 05:10:26.35 30,54 05:10:24.05
40° GARDINI TIZIANO GEN1 7 05:10:26.94 30,54 05:10:22.84
41° SERVADIO SANDRO VET2 6 05:10:27.12 30,54 05:10:03.03
42° ZANNONI RICCARDO SGNA 1 05:10:27.81 30,54 05:10:25.31
43° MARZOCCHI MARCO GEN2 3 05:10:27.82 30,54 05:10:23.32
44° PAZZAGLINI ALESSANDRO SEN2 8 05:10:30.70 30,53 05:10:24.20
45° FIORETTI RICCARDO JUN 4 05:17:45.56 29,83 05:17:41.26
46° CIANFLONE MAURIZIO GEN1 8 05:22:09.57 29,43 05:21:37.37
47° NONNI FLAVIO GEN1 9 05:22:10.23 29,43 05:22:04.04
48° PIERDOMINICI MANUEL VET2 7 05:22:11.27 29,42 05:22:03.27
49° FRISONI GUIDO VET2 8 05:22:16.26 29,42 05:22:16.26
50° TROMBETTA DIEGO VET1 10 05:24:13.63 29,24 05:23:37.13
51° CURZI GUIDO GEN1 10 05:24:15.04 29,24 05:23:42.42
52° FRANCOLINO ANTONIO VET1 11 05:24:15.64 29,24 05:23:40.34
53° TONINI MARCO SEN2 9 05:26:00.19 29,08 05:25:28.09
54° BERNACCHIA DIEGO SEN2 10 05:26:24.53 29,04 05:25:53.53
55° MERLARI ALEX JUN 5 05:26:24.94 29,04 05:26:23.74
56° PARRI ANDREA VET1 12 05:26:25.03 29,04 05:26:25.03
57° CASADEI FABIANO SEN2 11 05:26:25.23 29,04 05:26:20.20
58° BAZZANI MICHELE VET1 13 05:26:25.51 29,04 05:26:25.01
59° CASTELLANI MARCO VET2 9 05:26:25.52 29,04 05:26:00.02
60° ROMETTI ANDREA VET1 14 05:26:25.64 29,04 05:25:54.34
61° CARLESSO DENIS VET1 15 05:26:25.82 29,04 05:26:21.72
62° COSTANTINI FABRIZIO GEN1 11 05:26:26.96 29,04 05:25:59.16
63° FERRICELLI DANIELE SEN2 12 05:26:30.53 29,04 05:25:59.33
64° AUNE ESPEN VET2 10 05:27:40.35 28,93 05:27:06.06
65° CHIODI GIOIA DNA 1 05:29:00.75 28,81 05:28:58.25
66° CAIRO ELENA DNA 2 05:29:00.76 28,81 05:28:59.59
67° SANTINELLI GIAMPIERO GEN1 12 05:29:02.31 28,81 05:29:00.00
68° DRUDI MOSE“ VET1 16 05:29:03.03 28,81 05:29:02.02
69° CAROLI SAIMON VET2 11 05:29:03.47 28,81 05:28:56.47
70° IDONE FRANCESCO GEN1 13 05:29:03.67 28,81 05:28:35.35
71° MENGASCINI ANDREA VET2 12 05:29:05.36 28,81 05:29:00.06
72° POMPA DOMENICO JUN 6 05:29:05.37 28,81 05:28:57.57
73° DE SANTIS STEFANO SEN1 8 05:29:05.63 28,81 05:28:57.57
74° SAVINI CORRADO GEN1 14 05:29:05.64 28,81 05:29:00.14
75° FILIPPI FEDERICO GEN1 15 05:29:05.73 28,81 05:28:32.32
76° RUGGERI GIANLUCA VET2 13 05:29:06.49 28,81 05:28:32.32
77° PAOLI EDDY VET1 17 05:29:52.06 28,74 05:29:20.20
78° BRUNI WALTER SEN1 9 05:30:47.28 28,66 05:30:06.18
79° PAOLONI GIANLUCA SEN1 10 05:31:18.71 28,61 05:31:12.12
80° TRABALZA SIMONE SEN2 13 05:33:13.23 28,45 05:32:48.48
81° MORGANTI RAFFAELE GEN2 4 05:33:13.49 28,45 05:32:49.49
82° VALLONI STEFANO VET2 14 05:33:13.62 28,45 05:32:36.02
83° GIANNINI ALESSANDRO VET1 18 05:33:14.40 28,45 05:32:40.40
84° GIOVAGNINI GIORGIO GEN1 16 05:33:14.55 28,45 05:33:12.12
85° MENGUCCI MAURIZIO GEN1 17 05:35:14.64 28,28 05:35:11.11
86° MARCELLINO RICCARDO VET1 19 05:35:15.52 28,28 05:35:10.12
87° ANASTASIO PIERLUIGI GEN1 18 05:37:44.02 28,07 05:37:44.02
88° DE SANTI MASSIMO GEN2 5 05:37:57.98 28,05 05:37:28.58
89° FULGENZI SIMONE VET1 20 05:37:59.82 28,05 05:37:29.62
90° MARCELLI CRISTIANO VET2 15 05:38:00.81 28,05 05:37:28.81
91° CECCHI MONICA DNA 3 05:38:00.95 28,05 05:38:00.95
92° BETTI VITTORIO VET2 16 05:38:01.08 28,05 05:09:55.08
93° COLA MASSIMILIANO JUN 7 05:38:01.26 28,05 05:37:32.32
94° CECCONI RAOUL VET1 21 05:38:01.76 28,05 05:37:28.28
95° CIMINARI ANDREA VET2 17 05:38:02.34 28,04 05:37:29.04
96° MONTALTI FABIO GEN1 19 05:38:02.35 28,04 05:38:01.01
97° SCATOZZA TINO VET1 22 05:38:02.47 28,04 05:37:58.07
98° CAVALLI ALBERTO VET2 18 05:38:02.66 28,04 05:37:32.36
99° CIOTTI GIUSEPPE VET2 19 05:38:02.67 28,04 05:37:26.47
100° CURZI MAURO SEN2 14 05:38:03.04 28,04 05:37:29.29
 

ELENCO GARE VISUALIZZAZIONE ESTESA

Data
Evento
Posizione
Punti
Km
Sport